Frenchville, ME

12:32 AM EDT on April 28, 2017 (GMT -0400)
Northern Aroostook Regional

Weather History for KFVE - February, 2013

Change the Weather History Date:

Tuesday, February 26, 2013

  Actual Average Record
Temperature  
Mean Temperature 24 °F 17 °F  
Max Temperature 38 °F 25 °F 44 °F (2017)
Min Temperature 9 °F 8 °F -13 °F (2003)
Degree Days  
Heating Degree Days 41    
Month to date heating degree days 1305  
Since 1 July heating degree days 6412  
Cooling Degree Days 0    
Month to date cooling degree days 0  
Year to date cooling degree days 0  
Moisture  
Dew Point 16 °F    
Average Humidity 70    
Maximum Humidity 92    
Minimum Humidity 47    
Precipitation  
Precipitation T in 0.04 in 0.41 in (2017)
Month to date precipitation 0.74 0.73  
Year to date precipitation 1.72 2.49  
Sea Level Pressure  
Sea Level Pressure 30.29 in    
Wind  
Wind Speed 3 mph (WNW)    
Max Wind Speed 9 mph    
Max Gust Speed 10 mph    
Visibility 10 miles    
Events Snow    
T = Trace of Precipitation, MM = Missing Value Source: NWS Daily Summary

Daily Weather History Graph

Daily Weather History Graph

Search for Another Location

Airport or City:

Trip Planner

Search our weather history database for the weather conditions in past years. The results will help you decide how hot, cold, wet, or windy it might be!

Date:

Astronomy

Feb. 26, 2013 Rise Set
Actual Time 6:18 AM EST 5:14 PM EST
Civil Twilight 5:47 AM EST 5:45 PM EST
Nautical Twilight 5:12 AM EST 6:20 PM EST
Astronomical Twilight 4:36 AM EST 6:56 PM EST
Moon 6:36 PM EST (2/26) 6:12 AM EST (2/26)
Length of Visible Light 11h 57m
Length of Day
10h 55m
Full, 99% of the Moon is Illuminated
Feb 26
Full
Mar 4
Last Quarter
Mar 11
New
Mar 19
First Quarter
Mar 27
Full

Hourly Weather History & Observations

Time (EST) Temp. Windchill Dew Point Humidity Pressure Visibility Wind Dir Wind Speed Gust Speed Precip Events Conditions
12:53 AM 21.0 °F 12.4 °F 14.0 °F 74% 30.21 in 10.0 mi NW 6.9 mph - N/A   Clear
1:53 AM 18.0 °F 9.8 °F 12.9 °F 81% 30.22 in 10.0 mi NW 5.8 mph - N/A   Clear
2:53 AM 17.1 °F 11.7 °F 10.9 °F 77% 30.23 in 10.0 mi NW 3.5 mph - N/A   Clear
3:53 AM 17.1 °F 10.0 °F 10.0 °F 74% 30.24 in 10.0 mi West 4.6 mph - N/A   Clear
4:53 AM 12.9 °F 6.9 °F 10.0 °F 88% 30.26 in 10.0 mi WNW 3.5 mph - N/A   Clear
5:53 AM 10.0 °F - 8.1 °F 92% 30.29 in 10.0 mi Calm Calm - N/A   Clear
6:53 AM 10.9 °F 4.7 °F 8.1 °F 88% 30.31 in 10.0 mi WNW 3.5 mph - N/A   Clear
7:53 AM 14.0 °F - 10.0 °F 84% 30.32 in 10.0 mi Calm Calm - N/A   Clear
8:53 AM 15.1 °F 9.4 °F 10.0 °F 80% 30.34 in 10.0 mi SW 3.5 mph - 0.00 in   Clear
9:53 AM 21.0 °F 16.2 °F 15.1 °F 78% 30.34 in 9.0 mi SW 3.5 mph - 0.00 in Snow Light Snow
10:53 AM 26.1 °F 19.4 °F 17.1 °F 69% 30.33 in 10.0 mi SSW 5.8 mph - 0.00 in   Clear
11:53 AM 30.0 °F - 19.0 °F 64% 30.32 in 10.0 mi Calm Calm - N/A   Clear
12:53 PM 34.0 °F - 21.0 °F 59% 30.30 in 10.0 mi Calm Calm - N/A   Clear
1:53 PM 36.0 °F - 18.0 °F 48% 30.29 in 10.0 mi Calm Calm - N/A   Clear
2:53 PM 37.9 °F - 19.0 °F 47% 30.28 in 10.0 mi Calm Calm - N/A   Clear
3:53 PM 35.1 °F - 19.0 °F 52% 30.28 in 10.0 mi Calm Calm - N/A   Clear
4:53 PM 34.0 °F 29.8 °F 19.0 °F 54% 30.30 in 10.0 mi WSW 4.6 mph - N/A   Clear
5:53 PM 32.0 °F 25.6 °F 18.0 °F 56% 30.31 in 10.0 mi West 6.9 mph - N/A   Clear
6:53 PM 30.9 °F 26.2 °F 19.0 °F 61% 30.32 in 10.0 mi NW 4.6 mph - N/A   Clear
7:53 PM 28.9 °F 25.2 °F 19.0 °F 67% 30.32 in 10.0 mi North 3.5 mph - N/A   Clear
8:53 PM 28.0 °F 21.7 °F 19.9 °F 72% 30.32 in 10.0 mi North 5.8 mph - N/A   Clear
9:53 PM 26.6 °F 20.0 °F 19.4 °F 74% 30.27 in 10.0 mi North 5.8 mph - N/A   Clear
10:53 PM 27.0 °F 23.0 °F 19.0 °F 72% 30.31 in 10.0 mi North 3.5 mph - N/A   Clear
11:53 PM 26.1 °F - 19.0 °F 75% 30.29 in 10.0 mi Calm Calm - N/A   Clear